Location: Germantown (historical)
(41.1839°N, 80.5684°W)
Time: 15:30:26
(UTC+00:00)

Daily predictions for brighter satellites

Satellite Brightness Start Highest point End
(mag) Time Altitude Azimuth Time Altitude Azimuth Time Altitude Azimuth
Cosmos 1666 3.2 12:01:03 10° SSW 12:04:36 37° WNW 12:08:09 10° N
AQUARIUS 4.2 12:04:16 10° N 12:08:43 62° WNW 12:13:08 10° SSW
Cosmos 968 Rocket 3.5 12:04:57 10° NNW 12:10:08 90° NE 12:15:14 10° SSE
Cosmos 2278 Rocket 2.3 12:05:50 10° SSW 12:11:30 87° ESE 12:17:13 10° NNE
Cosmos 1190 Rocket 4.4 22:17:58 10° S 22:22:53 45° ESE 22:27:49 10° NNE
IRS-1C Rocket 4.2 22:19:41 10° SSE 22:24:47 53° ENE 22:29:55 10° N
Cosmos 921 Rocket 3.3 22:22:34 10° N 22:26:43 45° ENE 22:30:55 10° SE
Cosmos 1733 Rocket 4.3 22:23:39 10° NNW 22:27:52 46° W 22:32:06 10° SSW
Okean-O 3.5 22:25:22 10° SE 22:29:05 27° ENE 22:32:48 10° N
Cosmos 292 Rocket 3.9 22:25:37 10° NNW 22:30:31 85° WSW 22:35:20 10° SSE
Cosmos 1092 Rocket 4.0 22:28:33 10° S 22:34:49 76° E 22:41:04 10° N
STARLINK-43 3.5 22:31:55 10° WSW 22:35:36 68° NW 22:39:19 10° NE
BREEZE-M DEB (TANK) 3.1 22:35:57 10° WNW 22:38:21 40° SW 22:40:33 10° SE
CZ-4B R/B 4.3 22:34:04 10° S 22:39:14 49° W 22:44:31 10° NNW
USA 215 3.4 22:33:03 10° NE 22:39:35 76° NW 22:46:05 10° WSW
Cosmos 1743 3.3 22:36:35 10° N 22:40:10 34° ENE 22:43:44 10° SE
PSLV R/B 4.2 22:40:54 10° N 22:45:00 69° WNW 22:49:03 10° SSW
Cosmos 1943 4.5 22:41:01 10° SE 22:45:02 20° E 22:48:24 12° ENE
Cosmos 1140 Rocket 3.5 22:43:03 10° S 22:48:05 61° ESE 22:53:10 10° NNE
Cosmos 1536 4.4 22:50:37 10° NNW 22:54:20 38° W 22:58:01 10° SSW
Cosmos 1023 Rocket 4.4 22:51:21 10° SSW 22:56:25 76° ESE 23:01:33 10° NNE
Envisat 3.1 22:52:10 10° SSE 22:57:04 51° ENE 23:01:59 10° N
CORIOLIS 4.1 22:51:53 10° SSE 22:57:20 81° ENE 23:02:47 10° NNW
Cosmos 2369 Rocket 2.9 22:53:43 10° N 22:58:43 31° ENE 23:03:42 10° ESE
NOSS 7 (E) 4.4 22:55:21 10° SSW 22:59:12 70° ESE 23:01:30 18° NE
STARLINK-80 3.5 22:57:13 10° WSW 23:00:59 75° NW 23:03:41 18° NE
SL-4 R/B 3.4 23:01:47 10° NW 23:04:49 22° NNE 23:06:12 18° NE
SL-16 R/B 2.8 22:59:18 10° SW 23:04:53 58° WNW 23:10:31 10° NNE
Cosmos 1782 Rocket 3.5 23:00:35 10° N 23:04:57 89° WSW 23:09:17 10° S
Cosmos 407 Rocket 4.0 23:00:49 10° SSW 23:05:57 63° WNW 23:11:12 10° NNE
Cosmos 1428 Rocket 4.4 22:59:48 10° S 23:05:58 82° E 23:12:16 10° N
AQUARIUS 4.5 23:02:46 10° S 23:07:15 71° WSW 23:11:45 10° NNW
Meteor 1-18 Rocket 4.2 23:02:05 10° S 23:07:45 77° E 23:13:22 10° NNE
SKYMED 2 3.9 23:03:58 10° NNE 23:08:08 43° E 23:12:15 10° S
Okean 1 3.3 23:05:34 10° S 23:09:32 85° W 23:13:31 10° N
Cosmos 2237 Rocket 4.3 23:07:47 10° W 23:12:03 21° NW 23:16:20 10° N
USA 267 3.3 23:05:46 10° ESE 23:12:12 63° NE 23:18:39 10° NW
Cosmos 1603 4.0 23:06:55 10° S 23:12:22 47° ESE 23:16:39 16° NE
S3M 4.2 23:07:04 10° N 23:12:58 45° ENE 23:18:47 10° SSE
Cosmos 405 Rocket 3.2 23:10:33 10° N 23:13:57 33° ENE 23:17:21 10° SE
NOSS 3-1 (C) 4.4 23:09:06 10° NNW 23:16:08 41° NE 23:23:58 10° ESE
Cosmos 1943 Rocket 2.3 23:10:58 10° NNW 23:16:27 50° ENE 23:21:50 10° SE
FengYun 1-2 T 4.2 23:16:04 10° SSE 23:21:28 63° ENE 23:26:55 10° N
Lacrosse 5 1.9 23:17:11 10° SSW 23:22:13 68° SE 23:25:02 26° NE
Cosmos 2084 Rocket 4.5 23:18:50 10° S 23:22:34 28° ESE 23:23:18 26° E
Cosmos 1553 Rocket 4.0 23:16:35 10° N 23:23:00 73° E 23:29:23 10° SSE
STARLINK-37 4.5 23:19:42 10° SSW 23:23:18 32° SE 23:24:15 28° ESE
Okean 2 Rocket 3.1 23:18:55 10° N 23:23:23 61° E 23:27:51 10° SSE
H-2A R/B 4.3 23:20:23 10° SSW 23:23:48 36° W 23:27:14 10° NNW
STARLINK-36 4.5 23:21:02 10° SSW 23:24:36 32° SE 23:25:28 29° ESE
Abrixas rocket 2.7 23:23:11 10° W 23:26:04 41° NNW 23:26:42 36° NNE
STARLINK-41 4.4 23:22:52 10° SSW 23:26:28 32° SE 23:27:14 30° ESE
Cosmos 2221 Rocket 3.5 23:22:58 10° S 23:27:26 86° E 23:31:54 10° N
Cosmos 2026 Rocket 4.5 23:21:40 10° SSW 23:27:38 59° W 23:33:38 10° N
Cosmos 489 Rocket 4.4 23:21:20 10° NNW 23:27:44 85° ENE 23:34:06 10° SSE
USA 229 DEB 4.1 23:20:49 10° NNW 23:27:46 46° NE 23:33:31 16° ESE
USA 229 4.1 23:20:55 10° NNW 23:27:51 46° NE 23:33:29 17° ESE
STARLINK-64 4.3 23:24:29 10° SSW 23:28:07 34° SE 23:28:50 31° ESE
STARLINK-35 4.3 23:26:06 10° SSW 23:29:46 35° SE 23:30:28 33° ESE
Uosat 12 SS-18 rocket 4.0 23:25:36 10° NNW 23:30:12 60° NE 23:33:06 19° SE
Sich 1 Rocket 4.0 23:26:20 10° NNW 23:30:41 62° W 23:35:00 10° S
CSL-04 Rocket 3.8 23:25:56 10° SE 23:30:58 47° ENE 23:36:03 10° N
STARLINK-51 4.2 23:27:43 10° SSW 23:31:26 37° SE 23:32:05 34° ESE
YAOGAN 6 2.4 23:29:21 10° SSE 23:32:53 83° ENE 23:36:31 10° N
STARLINK-30 4.2 23:29:21 10° SSW 23:33:05 38° SE 23:33:40 36° ESE
STARLINK-33 4.1 23:30:49 10° SSW 23:34:34 39° SE 23:35:06 37° ESE
GPS 2-05 Rocket1 4.1 23:33:04 10° SW 23:35:18 22° S 23:35:23 22° S
CZ-4C R/B 2.0 23:30:50 10° SSW 23:35:39 64° ESE 23:38:14 31° NE
CZ-4 R/B 1.1 23:32:13 10° SSE 23:36:03 64° ENE 23:39:53 10° N
STARLINK-50 4.0 23:32:35 10° SSW 23:36:22 41° SE 23:36:51 39° ESE
STARLINK 4.2 23:34:05 10° SSW 23:37:48 37° SE 23:38:05 37° ESE
Meteor 2-4 Rocket 3.7 23:32:17 10° S 23:38:06 67° E 23:43:35 11° NNE
STARLINK-56 3.9 23:35:51 10° SSW 23:39:40 43° SE 23:40:02 42° ESE
Cosmos 1515 3.6 23:36:01 10° S 23:39:47 87° W 23:41:52 26° N
Starlink (trailer) 3.9 23:37:28 10° SSW 23:41:19 45° SE 23:41:37 44° ESE
STARLINK-38 3.8 23:39:06 10° SSW 23:42:58 47° SE 23:43:13 46° ESE
STARLINK-65 3.8 23:40:43 10° SSW 23:44:35 48° SE 23:44:46 48° SE
Cosmos 1674 Rocket 3.7 23:40:37 10° SSE 23:44:53 50° E 23:45:05 49° E
STARLINK-48 4.2 23:43:59 10° WSW 23:47:43 44° NNW 23:48:30 38° N
Cosmos 1975 3.6 23:45:21 10° NNW 23:49:16 51° W 23:53:09 10° S
STARLINK-69 3.7 23:45:40 10° SW 23:49:35 55° SE 23:49:38 55° SE
Gbstr 26 Del rocket 4.0 23:42:53 10° SW 23:50:12 89° SE 23:52:46 39° NE
STARLINK-66 3.7 23:47:16 10° SW 23:51:10 56° SE 23:51:10 56° SE
BREEZE-M R/B 3.3 23:47:20 10° NW 23:50:44 39° NNW 23:50:44 39° NNW
CZ-3B R/B 3.6 23:50:05 10° S 23:52:39 14° SSE 23:53:53 14° SE
Cosmos 1300 Rocket 3.4 23:49:38 10° N 23:53:58 85° W 23:58:16 10° S
CSL-04 Debris 4.0 23:48:59 10° SSE 23:54:26 79° ENE 23:59:52 10° NNW
